Imperial, NE

2:21 AM MST on February 21, 2017 (GMT -0700)
Imperial Municipal

Weather History for KIML - April, 2013

Change the Weather History Date:

Saturday, April 20, 2013

  Actual Average Record
Temperature  
Mean Temperature 43 °F 50 °F  
Max Temperature 58 °F 64 °F 91 °F (1902)
Min Temperature 28 °F 36 °F 18 °F (1953)
Degree Days  
Heating Degree Days 22 15  
Month to date heating degree days 474 365  
Cooling Degree Days 0 0  
Month to date cooling degree days 0 0  
Year to date cooling degree days 0 0  
Moisture  
Dew Point 29 °F    
Average Humidity 63    
Maximum Humidity 92    
Minimum Humidity 33    
Precipitation  
Precipitation 0.00 in 0.08 in 2.12 in (1984)
Sea Level Pressure  
Sea Level Pressure 30.00 in    
Wind  
Wind Speed 11 mph (SE)    
Max Wind Speed 20 mph    
Max Gust Speed 25 mph    
Visibility 10 miles    
Events      
T = Trace of Precipitation, MM = Missing Value Source: NWS Daily Summary

Daily Weather History Graph

Daily Weather History Graph

Search for Another Location

Airport or City:

Trip Planner

Search our weather history database for the weather conditions in past years. The results will help you decide how hot, cold, wet, or windy it might be!

Date:

Astronomy

Apr. 20, 2013 Rise Set
Actual Time 6:00 AM MDT 7:31 PM MDT
Civil Twilight 5:31 AM MDT 7:59 PM MDT
Nautical Twilight 4:56 AM MDT 8:34 PM MDT
Astronomical Twilight 4:20 AM MDT 9:11 PM MDT
Moon 2:15 PM MDT (4/20) 2:51 AM MDT (4/20)
Length of Visible Light 14h 28m
Length of Day
13h 31m
Waxing Gibbous, 71% of the Moon is Illuminated
Apr 20
Waxing Gibbous
Apr 25
Full
May 2
Last Quarter
May 9
New
May 17
First Quarter

Hourly Weather History & Observations

Time (MDT) Temp. Windchill Dew Point Humidity Pressure Visibility Wind Dir Wind Speed Gust Speed Precip Events Conditions
12:53 AM 37.0 °F 28.9 °F 30.0 °F 76% 30.03 in 10.0 mi SSE 12.7 mph - N/A   Overcast
1:53 AM 37.0 °F 28.5 °F 28.9 °F 73% 30.01 in 10.0 mi SSE 13.8 mph - N/A   Overcast
2:53 AM 35.1 °F 30.1 °F 28.9 °F 78% 30.00 in 10.0 mi ESE 5.8 mph - N/A   Mostly Cloudy
3:53 AM 33.1 °F 27.7 °F 28.0 °F 82% 29.99 in 10.0 mi East 5.8 mph - N/A   Overcast
4:53 AM 30.0 °F 23.2 °F 26.1 °F 85% 29.99 in 10.0 mi ESE 6.9 mph - N/A   Clear
5:53 AM 28.9 °F 22.8 °F 26.1 °F 89% 30.01 in 10.0 mi ESE 5.8 mph - N/A   Clear
6:53 AM 30.9 °F 25.2 °F 28.0 °F 89% 30.03 in 10.0 mi East 5.8 mph - N/A   Clear
7:53 AM 35.1 °F 25.9 °F 28.9 °F 78% 30.05 in 10.0 mi ESE 13.8 mph - N/A   Mostly Cloudy
8:53 AM 37.0 °F 27.4 °F 28.0 °F 70% 30.06 in 10.0 mi SE 17.3 mph - N/A   Overcast
9:53 AM 41.0 °F 32.8 °F 28.0 °F 60% 30.05 in 10.0 mi SSE 16.1 mph - N/A   Overcast
10:53 AM 46.9 °F - 28.9 °F 50% 30.03 in 10.0 mi SE 19.6 mph 25.3 mph N/A   Clear
11:53 AM 48.9 °F - 28.0 °F 44% 30.01 in 10.0 mi SE 15.0 mph - N/A   Overcast
12:53 PM 52.0 °F - 28.0 °F 40% 29.98 in 10.0 mi SSE 12.7 mph - N/A   Scattered Clouds
1:53 PM 55.0 °F - 28.0 °F 35% 29.96 in 10.0 mi SSE 12.7 mph 21.9 mph N/A   Clear
2:53 PM 55.9 °F - 28.0 °F 34% 29.96 in 10.0 mi SE 9.2 mph 17.3 mph N/A   Clear
3:53 PM 57.0 °F - 28.0 °F 33% 29.95 in 10.0 mi ESE 11.5 mph 19.6 mph N/A   Clear
4:53 PM 57.0 °F - 28.0 °F 33% 29.95 in 10.0 mi SE 15.0 mph - N/A   Clear
5:53 PM 55.9 °F - 28.9 °F 36% 29.96 in 10.0 mi SE 15.0 mph - N/A   Clear
6:53 PM 54.0 °F - 30.9 °F 41% 29.96 in 10.0 mi ESE 9.2 mph - N/A   Clear
7:53 PM 46.0 °F 42.5 °F 30.9 °F 56% 29.99 in 10.0 mi ESE 6.9 mph - N/A   Partly Cloudy
8:53 PM 43.0 °F 37.7 °F 32.0 °F 65% 30.03 in 10.0 mi SE 9.2 mph - N/A   Partly Cloudy
9:53 PM 43.0 °F 37.2 °F 34.0 °F 71% 30.03 in 10.0 mi SE 10.4 mph - N/A   Clear
10:53 PM 41.0 °F 34.3 °F 33.1 °F 73% 30.01 in 10.0 mi SE 11.5 mph - N/A   Clear
11:53 PM 39.9 °F 35.1 °F 33.1 °F 77% 30.01 in 10.0 mi SE 6.9 mph - N/A   Overcast